| time (UTC) | temp C | wind direction | speed KPH | gust KPH | rain 1hr cm | rain 24hr cm | rain mn cm | humidity % | barometer mb |
| 20260903110353 | 17 | 200 | 0.0 | 0.0 | 0.00 | 0.00 | 0.00 | ||
| 20260903104853 | 18 | 200 | 0.0 | 0.0 | 0.00 | 0.00 | 0.00 | ||
| 20260903103353 | 17 | 200 | 0.0 | 0.0 | 0.00 | 0.00 | 0.00 | ||
| 20260903101854 | 17 | 200 | 0.0 | 0.0 | 0.00 | 0.00 | 0.00 | ||
| 20260903100354 | 17 | 200 | 0.0 | 0.0 | 0.00 | 0.00 | 0.00 | ||
| 20260903094854 | 17 | 200 | 0.0 | 0.0 | 0.00 | 0.00 | 0.00 | ||
| 20260903093354 | 17 | 200 | 1.6 | 0.0 | 0.00 | 0.00 | 0.00 | ||
| 20260903091855 | 17 | 359 | 0.0 | 0.0 | 0.00 | 0.00 | 0.00 | ||
| 20260903090355 | 17 | 359 | 0.0 | 0.0 | 0.00 | 0.00 | 0.00 | ||
| 20260903084855 | 17 | 359 | 0.0 | 0.0 | 0.00 | 0.00 | 0.00 | ||
| 20260903083355 | 17 | 359 | 0.0 | 0.0 | 0.00 | 0.00 | 0.00 | ||
| 20260903081855 | 16 | 359 | 0.0 | 0.0 | 0.00 | 0.00 | 0.00 | ||
| 20260903080355 | 17 | 359 | 0.0 | 0.0 | 0.00 | 0.00 | 0.00 | ||
| 20260903074855 | 18 | 359 | 0.0 | 0.0 | 0.00 | 0.00 | 0.00 | ||
| 20260903073355 | 18 | 359 | 0.0 | 0.0 | 0.00 | 0.00 | 0.00 | ||
| 20260903071855 | 18 | 359 | 0.0 | 0.0 | 0.00 | 0.00 | 0.00 | ||
| 20260903070355 | 17 | 359 | 0.0 | 0.0 | 0.00 | 0.00 | 0.00 | ||
| 20260903064854 | 18 | 359 | 0.0 | 0.0 | 0.00 | 0.00 | 0.00 | ||
| 20260903063354 | 19 | 359 | 0.0 | 0.0 | 0.00 | 0.00 | 0.00 | ||
| 20260903061855 | 19 | 359 | 0.0 | 0.0 | 0.00 | 0.00 | 0.00 | ||
| 20260903060354 | 20 | 359 | 0.0 | 0.0 | 0.00 | 0.00 | 0.00 | ||
| 20260903054854 | 20 | 359 | 0.0 | 0.0 | 0.00 | 0.00 | 0.00 | ||
| 20260903053353 | 19 | 359 | 0.0 | 0.0 | 0.00 | 0.00 | 0.00 | ||
| 20260903051853 | 19 | 359 | 0.0 | 0.0 | 0.00 | 0.00 | 0.00 | ||
| 20260903050352 | 20 | 359 | 0.0 | 0.0 | 0.00 | 0.00 | 0.00 | ||
| 20260903044853 | 20 | 359 | 0.0 | 0.0 | 0.00 | 0.00 | 0.00 | ||
| 20260903043352 | 21 | 359 | 0.0 | 0.0 | 0.00 | 0.00 | 0.00 | ||
| 20260903041851 | 22 | 359 | 0.0 | 0.0 | 0.00 | 0.00 | 0.00 | ||
| 20260903040351 | 22 | 359 | 0.0 | 0.0 | 0.00 | 0.00 | 0.00 | ||
| 20260903034851 | 22 | 359 | 0.0 | 0.0 | 0.00 | 0.00 | 0.00 | ||
| 20260903033349 | 23 | 359 | 0.0 | 0.0 | 0.00 | 0.00 | 0.00 | ||
| 20260903031849 | 22 | 359 | 0.0 | 0.0 | 0.00 | 0.00 | 0.00 | ||
| 20260903030348 | 22 | 359 | 0.0 | 0.0 | 0.00 | 0.00 | 0.00 | ||
| 20260903024848 | 23 | 359 | 0.0 | 0.0 | 0.00 | 0.00 | 0.00 | ||
| 20260903021847 | 25 | 359 | 0.0 | 0.0 | 0.00 | 0.00 | 0.00 | ||
| 20260903014845 | 26 | 359 | 0.0 | 0.0 | 0.00 | 0.00 | 0.00 | ||
| 20260903013345 | 27 | 339 | 0.0 | 0.0 | 0.00 | 0.00 | 0.00 | ||
| 20260903011844 | 28 | 1 | 0.0 | 0.0 | 0.00 | 0.00 | 0.00 | ||
| 20260903010344 | 30 | 359 | 0.0 | 0.0 | 0.00 | 0.00 | 0.00 | ||
| 20260903004844 | 29 | 283 | 0.0 | 0.0 | 0.00 | 0.00 | 0.00 | ||
| 20260903003343 | 30 | 229 | 0.0 | 0.0 | 0.00 | 0.00 | 0.00 | ||
| 20260903001842 | 31 | 338 | 3.2 | 6.4 | 0.00 | 0.00 | 0.00 | ||
| 20260903000342 | 32 | 25 | 4.8 | 0.0 | 0.00 | 0.00 | 0.00 | ||
| 20260902234841 | 30 | 18 | 0.0 | 0.0 | 0.00 | 0.00 | 0.00 | ||
| 20260902233341 | 30 | 335 | 3.2 | 0.0 | 0.00 | 0.00 | 0.00 | ||
| 20260902231840 | 30 | 318 | 3.2 | 1.6 | 0.00 | 0.00 | 0.00 | ||
| 20260902230339 | 32 | 271 | 0.0 | 0.0 | 0.00 | 0.00 | 0.00 | ||
| 20260902224838 | 30 | 302 | 1.6 | 4.8 | 0.00 | 0.00 | 0.00 | ||
| 20260902223337 | 33 | 308 | 0.0 | 0.0 | 0.00 | 0.00 | 0.00 | ||
| 20260902221836 | 34 | 287 | 0.0 | 0.0 | 0.00 | 0.00 | 0.00 | ||
| 20260902220335 | 33 | 10 | 3.2 | 0.0 | 0.00 | 0.00 | 0.00 | ||
| 20260902213335 | 31 | 291 | 1.6 | 0.0 | 0.00 | 0.00 | 0.00 | ||
| 20260902211834 | 30 | 301 | 3.2 | 3.2 | 0.00 | 0.00 | 0.00 | ||
| 20260902210332 | 29 | 277 | 3.2 | 4.8 | 0.00 | 0.00 | 0.00 | ||
| 20260902204832 | 30 | 291 | 8.0 | 3.2 | 0.00 | 0.00 | 0.00 | ||
| 20260902203331 | 31 | 257 | 3.2 | 4.8 | 0.00 | 0.00 | 0.00 | ||
| 20260902201829 | 30 | 37 | 1.6 | 0.0 | 0.00 | 0.00 | 0.00 | ||
| 20260902200329 | 30 | 321 | 1.6 | 3.2 | 0.00 | 0.00 | 0.00 | ||
| 20260902194828 | 31 | 349 | 1.6 | 0.0 | 0.00 | 0.00 | 0.00 | ||
| 20260902193330 | 32 | 329 | 4.8 | 0.0 | 0.00 | 0.00 | 0.00 | ||
| 20260902191826 | 31 | 359 | 6.4 | 8.0 | 0.00 | 0.00 | 0.00 | ||
| 20260902190325 | 32 | 31 | 8.0 | 4.8 | 0.00 | 0.00 | 0.00 | ||
| 20260902184824 | 31 | 309 | 4.8 | 4.8 | 0.00 | 0.00 | 0.00 | ||
| 20260902183324 | 30 | 349 | 6.4 | 9.7 | 0.00 | 0.00 | 0.00 | ||
| 20260902181823 | 28 | 333 | 0.0 | 0.0 | 0.00 | 0.00 | 0.00 | ||
| 20260902180322 | 29 | 302 | 0.0 | 1.6 | 0.00 | 0.00 | 0.00 | ||
| 20260902174821 | 30 | 143 | 0.0 | 0.0 | 0.00 | 0.00 | 0.00 | ||
| 20260902173320 | 30 | 13 | 6.4 | 4.8 | 0.00 | 0.00 | 0.00 | ||
| 20260902170319 | 29 | 80 | 4.8 | 8.0 | 0.00 | 0.00 | 0.00 | ||
| 20260902164819 | 28 | 350 | 6.4 | 1.6 | 0.00 | 0.00 | 0.00 | ||
| 20260902163318 | 27 | 316 | 4.8 | 8.0 | 0.00 | 0.00 | 0.00 | ||
| 20260902161818 | 28 | 359 | 1.6 | 4.8 | 0.00 | 0.00 | 0.00 | ||
| 20260902160319 | 27 | 20 | 3.2 | 1.6 | 0.00 | 0.00 | 0.00 | ||
| 20260902153317 | 26 | 281 | 4.8 | 4.8 | 0.00 | 0.00 | 0.00 | ||
| 20260902151817 | 25 | 349 | 3.2 | 0.0 | 0.00 | 0.00 | 0.00 |